DW8084 Weather Reports


time (UTC)temp
C
wind
direction
speed
KPH
gust
KPH
rain 1hr
cm
rain 24hr
cm
rain mn
cm
humidity
%
barometer
mb
20260505214203 10 335 1.6 4.8 0.00 0.00 0.00 77
20260505213204 10 332 1.6 4.8 0.00 0.00 0.00 77
20260505212203 10 334 3.2 6.4 0.00 0.00 0.00 77
20260505211203 10 337 3.2 6.4 0.00 0.00 0.00 76
20260505210203 10 348 1.6 6.4 0.00 0.00 0.00 76
20260505205204 10 347 1.6 8.0 0.00 0.00 0.00 76
20260505204203 11 345 3.2 8.0 0.00 0.00 0.00 76
20260505203418 11 344 1.6 6.4 0.00 0.00 0.00 76
20260505202204 11 342 3.2 11.3 0.00 0.00 0.00 75
20260505201415 11 346 1.6 6.4 0.00 0.00 0.00 75
20260505200204 11 345 1.6 4.8 0.00 0.00 0.00 73
20260505195205 11 337 1.6 6.4 0.00 0.00 0.00 73
20260505194203 11 332 1.6 8.0 0.00 0.00 0.00 72
20260505193204 11 329 3.2 9.7 0.00 0.00 0.00 71
20260505192205 12 343 3.2 9.7 0.00 0.00 0.00 70
20260505191203 12 355 3.2 8.0 0.00 0.00 0.00 68
20260505190204 12 354 4.8 12.9 0.00 0.00 0.00 67
20260505185203 12 355 4.8 12.9 0.00 0.00 0.00 66
20260505184203 12 3 6.4 16.1 0.00 0.00 0.00 65
20260505183205 12 14 3.2 9.7 0.00 0.00 0.00 63
20260505182205 13 10 6.4 16.1 0.00 0.00 0.00 63
20260505181206 13 16 1.6 6.4 0.00 0.00 0.00 63
20260505180204 13 11 4.8 9.7 0.00 0.00 0.00 63
20260505175205 13 354 4.8 11.3 0.00 0.00 0.00 62
20260505174203 13 342 4.8 11.3 0.00 0.00 0.00 62
20260505173206 13 334 4.8 12.9 0.00 0.00 0.00 63
20260505172206 13 335 4.8 14.5 0.00 0.00 0.00 63
20260505171205 13 345 8.0 16.1 0.00 0.00 0.00 62
20260505170205 14 353 6.4 19.3 0.00 0.00 0.00 61
20260505165205 14 347 4.8 12.9 0.00 0.00 0.00 61
20260505164206 14 341 4.8 16.1 0.00 0.00 0.00 62
20260505163205 13 335 6.4 14.5 0.00 0.00 0.00 63
20260505162205 13 333 6.4 16.1 0.00 0.00 0.00 62
20260505161206 14 331 8.0 14.5 0.00 0.00 0.00 62
20260505160418 15 326 8.0 19.3 0.00 0.00 0.00 59
20260505153205 14 356 3.2 9.7 0.00 0.00 0.00 59
20260505152205 14 2 4.8 12.9 0.00 0.00 0.00 60
20260505151205 14 355 4.8 12.9 0.00 0.00 0.00 60
20260505150205 14 358 4.8 12.9 0.00 0.00 0.00 58
20260505140414 15 340 8.0 16.1 0.00 0.00 0.00 55
20260505130205 14 9 8.0 17.7 0.00 0.00 0.00 56
20260505124205 15 357 4.8 19.3 0.00 0.00 0.00 57
20260505123207 14 353 6.4 14.5 0.00 0.00 0.00 58
20260505122205 13 349 6.4 14.5 0.00 0.00 0.00 59
20260505121205 13 355 4.8 12.9 0.00 0.00 0.00 60
20260505120205 13 3 4.8 12.9 0.00 0.00 0.00 61
20260505115204 13 360 4.8 14.5 0.00 0.00 0.00 62
20260505114205 13 340 4.8 16.1 0.00 0.00 0.00 63
20260505113204 14 5 3.2 6.4 0.00 0.00 0.00 64
20260505112204 14 3 4.8 16.1 0.00 0.00 0.00 63
20260505111415 14 359 6.4 12.9 0.00 0.00 0.00 63
20260505110204 13 33 4.8 16.1 0.00 0.00 0.00 65
20260505102204 13 28 8.0 16.1 0.00 0.00 0.00 68
20260505101204 13 21 6.4 17.7 0.00 0.00 0.00 69
20260505100205 13 23 6.4 19.3 0.00 0.00 0.00 68
20260505095205 12 31 8.0 14.5 0.00 0.00 0.00 70
20260505094414 12 33 8.0 22.5 0.00 0.00 0.00 70
20260505093205 12 35 6.4 16.1 0.00 0.00 0.00 72
20260505092204 11 34 6.4 20.9 0.00 0.00 0.00 72
20260505091204 11 35 8.0 19.3 0.00 0.00 0.00 72
20260505090205 11 36 8.0 19.3 0.00 0.00 0.00 73
20260505085418 10 40 4.8 11.3 0.00 0.00 0.00 76
20260505084414 10 40 4.8 11.3 0.00 0.00 0.00 78
20260505083204 10 23 4.8 12.9 0.00 0.00 0.00 80
20260505082205 10 26 3.2 11.3 0.00 0.00 0.00 82
20260505081205 10 30 6.4 17.7 0.00 0.00 0.00 82
20260505080418 9 26 6.4 14.5 0.00 0.00 0.00 83
20260505075204 9 19 3.2 8.0 0.00 0.00 0.00 85
20260505074205 9 16 6.4 14.5 0.00 0.00 0.00 85
20260505073204 8 23 1.6 6.4 0.00 0.00 0.00 86
20260505072204 8 15 3.2 11.3 0.00 0.00 0.00 86
20260505071204 8 10 3.2 9.7 0.00 0.00 0.00 86
20260505070204 9 15 6.4 12.9 0.00 0.00 0.00 85
20260505065204 9 21 6.4 14.5 0.00 0.00 0.00 85
20260505064205 9 18 4.8 12.9 0.00 0.00 0.00 85
20260505063204 9 16 4.8 16.1 0.00 0.00 0.00 86
20260505062417 9 16 6.4 14.5 0.00 0.00 0.00 86
20260505061205 9 2 4.8 16.1 0.00 0.00 0.00 87
20260505060204 8 348 4.8 14.5 0.00 0.00 0.00 88
20260505055206 8 348 3.2 8.0 0.00 0.00 0.00 89
20260505054204 8 348 3.2 6.4 0.00 0.00 0.00 91
20260505053204 8 347 3.2 8.0 0.00 0.00 0.00 92
20260505052205 8 352 1.6 9.7 0.00 0.00 0.00 93
20260505051204 8 10 3.2 9.7 0.00 0.00 0.00 94
20260505050204 8 22 3.2 6.4 0.00 0.00 0.00 94
20260505041204 7 12 3.2 11.3 0.00 0.00 0.00 95
20260505040205 7 15 1.6 8.0 0.00 0.00 0.00 95
20260505035204 7 23 1.6 4.8 0.00 0.00 0.00 95
20260505034205 7 22 1.6 6.4 0.00 0.00 0.00 94
20260505033413 7 28 1.6 6.4 0.00 0.00 0.00 94
20260505032204 8 30 1.6 6.4 0.00 0.00 0.00 94
20260505031204 8 20 1.6 6.4 0.00 0.00 0.00 93
20260505030203 8 24 3.2 6.4 0.00 0.00 0.00 93
20260505025204 8 27 1.6 8.0 0.00 0.00 0.00 93
20260505024204 8 16 1.6 6.4 0.00 0.00 0.00 93
20260505023203 8 26 0.0 3.2 0.00 0.00 0.00 93
20260505022204 8 34 1.6 8.0 0.00 0.00 0.00 93
20260505021416 8 42 1.6 4.8 0.00 0.00 0.00 93
20260505020204 8 48 0.0 3.2 0.00 0.00 0.00 93
20260505015204 8 38 1.6 6.4 0.00 0.00 0.00 93
20260505014204 8 28 1.6 3.2 0.00 0.00 0.00 92
20260505013203 9 30 0.0 4.8 0.00 0.00 0.00 92
20260505012203 9 31 1.6 4.8 0.00 0.00 0.00 91
20260505011203 9 47 0.0 1.6 0.00 0.00 0.00 91
20260505010203 10 27 0.0 4.8 0.00 0.00 0.00 90
20260505005204 10 15 0.0 3.2 0.00 0.00 0.00 90
20260505004204 10 25 0.0 3.2 0.00 0.00 0.00 89
20260505003204 10 32 1.6 3.2 0.00 0.00 0.00 89
20260505002203 10 44 1.6 3.2 0.00 0.00 0.00 89
20260505001203 11 48 0.0 4.8 0.00 0.00 0.00 88
20260505000204 11 65 1.6 3.2 0.00 0.00 0.00 88
20260504235203 11 73 1.6 6.4 0.00 0.00 0.00 89
20260504234203 11 76 1.6 6.4 0.00 0.00 0.00 89
20260504233203 11 80 1.6 4.8 0.00 0.00 0.00 89
20260504232203 11 75 1.6 6.4 0.00 0.00 0.00 89
20260504231203 11 70 1.6 6.4 0.00 0.00 0.00 90
20260504230414 11 78 1.6 4.8 0.00 0.00 0.00 90
20260504225204 11 76 1.6 4.8 0.00 0.00 0.00 90
20260504224204 11 62 0.0 4.8 0.00 0.00 0.00 90
20260504223204 11 56 1.6 3.2 0.00 0.00 0.00 89
20260504222204 12 57 1.6 3.2 0.00 0.00 0.00 89
20260504221204 12 66 1.6 6.4 0.00 0.00 0.00 89
20260504220203 12 73 1.6 6.4 0.00 0.00 0.00 88
20260504215203 12 75 1.6 6.4 0.00 0.00 0.00 88